Regional Weather Roundup
Issued by NWS

Home | Current Version | Previous Version | Graphics & Text | Print | Product List | Glossary On
Versions: 1 2 3 4 5 6 7 8 9 10 11 12 13 14 15 16 17 18 19 20 21 22 23 24 25 26 27 28 29 30 31 32 33 34 35 36 37 38 39 40 41 42 43 44 45 46 47 48 49 50
694
ASUS44 KLIX 251301
RWRLA
LOUISIANA WEATHER ROUNDUP
NATIONAL WEATHER SERVICE NEW ORLEANS LA
800 AM CDT SAT OCT 25 2014

NOTE: "FAIR" INDICATES FEW OR NO CLOUDS BELOW 12,000 FEET WITH NO
      SIGNIFICANT WEATHER AND/OR OBSTRUCTIONS TO VISIBILITY.
      SKY/WX - SKY CONDITION AND SIGNIFICANT WEATHER.
      TMP - AIR TEMPERATURE.    DP   - DEWPOINT TEMPERATURE.
      RH  - RELATIVE HUMIDITY.  PRES - PRESSURE.
      HX  - HEAT INDEX.         WCI  - WIND CHILL INDEX.

*  THESE STATIONS ARE NOT NWS OR FAA STATIONS AND ARE NOT UNDER
   NWS QUALITY CONTROL.

LAZ040-048-061>063-065-066-069-251400-
SOUTHEAST LOUISIANA

CITY           SKY/WX    TMP DP  RH WIND       PRES   REMARKS
N.O. AUDUBON   NOT AVBL
N.O. INTL ARPT PTCLDY    59  51  75 CALM      30.14R
N.O. LAKEFRONT CLEAR     65  52  62 NE8       30.14R
N.O. DOWNTOWN* FAIR      63  48  59 NE3       30.14R
SLIDELL        CLEAR     48  44  86 N3        30.13R
BATON ROUGE    CLEAR     49  46  90 CALM      30.15R
BOOTHVILLE     SUNNY     68  56  65 N6        30.12R
BELLE CHASSE   PTCLDY    53  50  89 CALM      30.13R
BOGALUSA*      FAIR      46  43  90 CALM      30.16R
NEW ROADS*     FAIR      47  46  96 CALM      30.15R
GONZALES*      FAIR      48  48 100 CALM      30.15R
HAMMOND*       NOT AVBL
HOUMA*         CLEAR     54  52  94 CALM      30.14R
PORT FOURCHON* SUNNY     66  57  72 N5        30.16R

$$

LAZ041-044-053-054-251400-
SOUTHWEST LOUISIANA

CITY           SKY/WX    TMP DP  RH WIND       PRES   REMARKS
LAKE CHARLES   CLEAR     52  49  89 CALM      30.16R
LAFAYETTE      CLEAR     52  50  93 CALM      30.15R
PATTERSON      CLEAR     52  50  93 CALM      30.17R
SALT POINT       N/A     55  52  89 CALM      30.14R
NEW IBERIA     CLEAR     54  48  80 CALM      30.16R
CHENAULT AIRPK CLEAR     52  50  93 CALM      30.16R

$$

LAZ027-028-251400-
CENTRAL LOUISIANA

CITY           SKY/WX    TMP DP  RH WIND       PRES   REMARKS
FORT POLK      CLEAR     50  48  95 SE1       30.16R
ALEXANDRIA INT CLEAR     47  47 100 CALM      30.15R FOG
ALEXANDRIA     CLEAR     46  44  93 CALM      30.16R

$$

LAZ001-002-251400-
NORTHWEST LOUISIANA

CITY           SKY/WX    TMP DP  RH WIND       PRES   REMARKS
SHREVEPORT     CLEAR     53  51  93 CALM      30.15R
BARKSDALE AFB  CLEAR     52  51  98 SE3       30.15R
DTN SHREVEPORT CLEAR     54  51  90 CALM      30.15R FOG

$$

LAZ014-016-251400-
NORTHEAST LOUISIANA

CITY           SKY/WX    TMP DP  RH WIND       PRES   REMARKS
MONROE         CLEAR     48  46  93 CALM      30.16R
TALLULAH       CLEAR     47  45  93 CALM      30.16R

$$




USA.gov is the U.S. government's official web portal to all federal, state and local government web resources and services.